FW6915 Weather Reports


time (UTC)temp
C
wind
direction
speed
KPH
gust
KPH
rain 1hr
cm
rain 24hr
cm
rain mn
cm
humidity
%
barometer
mb
20260510190246 11 352 0.0 0.0 0.00 0.00 0.00 75 1012.7
20260510185745 11 352 0.0 0.0 0.00 0.00 0.00 75 1012.7
20260510185244 11 346 0.0 0.0 0.00 0.00 0.00 76 1012.7
20260510184744 11 314 0.0 0.0 0.00 0.00 0.00 76 1012.7
20260510184243 11 27 0.0 0.0 0.00 0.00 0.00 76 1012.7
20260510183739 11 29 0.0 0.0 0.00 0.00 0.00 75 1012.8
20260510183238 11 352 0.0 0.0 0.00 0.00 0.00 75 1012.8
20260510182740 11 40 0.0 0.0 0.00 0.00 0.00 75 1012.9
20260510182241 12 33 0.0 0.0 0.00 0.00 0.00 75 1012.9
20260510182052 12 33 0.0 0.0 0.00 0.00 0.00 75 1012.8
20260510181557 12 23 0.0 0.0 0.00 0.00 0.00 75 1012.8
20260510180724 12 23 0.0 0.0 0.00 0.00 0.00 76 1012.9
20260510180211 12 5 0.0 0.0 0.00 0.00 0.00 76 1012.8
20260510175714 12 56 0.0 0.0 0.00 0.00 0.00 76 1012.9
20260510175338 12 294 0.0 0.0 0.00 0.00 0.00 76 1012.9
20260510175305 12 15 0.0 0.0 0.00 0.00 0.00 76 1013.0
20260510174210 12 346 0.0 0.0 0.00 0.00 0.00 76 1012.8
20260510173857 12 27 0.0 0.0 0.00 0.00 0.00 75 1013.0
20260510173812 12 5 0.0 0.0 0.00 0.00 0.00 76 1012.9
20260510172711 12 352 0.0 0.0 0.00 0.00 0.00 74 1013.0
20260510172526 13 23 0.0 0.0 0.00 0.00 0.00 74 1013.1
20260510171711 13 23 0.0 0.0 0.00 0.00 0.00 74 1013.1
20260510171212 13 35 0.0 0.0 0.00 0.00 0.00 74 1013.1
20260510170711 13 346 0.0 0.0 0.00 0.00 0.00 73 1013.0
20260510170206 14 20 0.0 0.0 0.00 0.00 0.00 74 1013.1
20260510165706 14 28 0.0 0.0 0.00 0.00 0.00 74 1013.1
20260510165206 14 31 0.0 0.0 0.00 0.03 0.00 73 1013.1
20260510164707 15 311 0.0 0.0 0.00 0.03 0.00 72 1013.1
20260510164204 15 26 0.0 0.0 0.00 0.03 0.00 72 1013.1
20260510163702 15 19 0.0 0.0 0.00 0.03 0.00 72 1013.0
20260510163202 15 15 0.0 0.0 0.00 0.03 0.00 72 1013.0
20260510162703 15 29 0.0 0.0 0.00 0.03 0.00 73 1012.9
20260510162202 15 29 0.0 0.0 0.00 0.03 0.00 72 1012.9
20260510161702 15 25 0.0 0.0 0.00 0.03 0.00 72 1013.0
20260510161201 15 25 0.0 0.0 0.00 0.03 0.00 71 1013.0
20260510160700 15 37 0.0 0.0 0.00 0.03 0.00 69 1012.9
20260510160201 16 5 0.0 0.0 0.00 0.03 0.00 70 1012.9
20260510155702 16 5 0.0 0.0 0.00 0.03 0.00 70 1012.8
20260510155202 16 350 0.0 0.0 0.00 0.03 0.00 69 1013.0
20260510154700 16 21 0.0 0.0 0.00 0.03 0.00 69 1013.0
20260510154203 16 29 0.0 0.0 0.00 0.03 0.00 71 1012.9
20260510153703 16 22 0.0 0.0 0.00 0.03 0.00 69 1013.0
20260510153156 16 15 0.0 0.0 0.00 0.03 0.00 71 1013.0
20260510152656 16 23 0.0 0.0 0.00 0.03 0.00 71 1013.0
20260510152156 16 15 0.0 0.0 0.00 0.03 0.00 68 1013.1
20260510152023 16 271 0.0 0.0 0.00 0.03 0.00 69 1013.0
20260510151159 16 319 0.0 0.0 0.00 0.03 0.00 69 1013.1
20260510150658 17 23 0.0 0.0 0.00 0.03 0.00 69 1013.1
20260510150156 17 19 0.0 0.0 0.00 0.03 0.00 69 1013.1
20260510145656 17 322 0.0 0.0 0.00 0.03 0.00 70 1013.2
20260510145157 17 25 0.0 0.0 0.00 0.03 0.00 68 1013.2
20260510144655 17 340 0.0 0.0 0.00 0.03 0.00 72 1013.1
20260510144155 16 339 0.0 0.0 0.00 0.03 0.00 68 1013.2
20260510144027 17 5 0.0 0.0 0.00 0.03 0.00 68 1013.4
20260510144021 17 10 0.0 0.0 0.00 0.03 0.00 68 1013.3
20260510143647 17 21 0.0 0.0 0.00 0.03 0.00 68 1013.3
20260510142402 17 19 0.0 0.0 0.00 0.03 0.00 68 1013.4
20260510142308 17 21 0.0 0.0 0.00 0.03 0.00 69 1013.4
20260510141153 17 323 0.0 0.0 0.00 0.03 0.00 66 1013.5
20260510140653 17 15 0.0 0.0 0.00 0.03 0.00 68 1013.4
20260510140153 17 42 0.0 0.0 0.00 0.03 0.00 67 1013.4
20260510135652 17 35 0.0 0.0 0.00 0.03 0.00 67 1013.4
20260510135152 17 15 0.0 0.0 0.00 0.03 0.00 68 1013.5
20260510134653 17 45 0.0 0.0 0.00 0.03 0.00 69 1013.5
20260510134154 17 15 0.0 0.0 0.00 0.03 0.00 67 1013.5
20260510133652 18 322 0.0 0.0 0.00 0.03 0.00 65 1013.5
20260510133151 18 28 0.0 0.0 0.00 0.03 0.00 64 1013.5
20260510132646 18 54 0.0 0.0 0.00 0.03 0.00 63 1013.5
20260510132147 18 32 0.0 0.0 0.00 0.03 0.00 62 1013.5
20260510132017 18 23 0.0 0.0 0.00 0.03 0.00 63 1013.5
20260510131144 18 355 0.0 0.0 0.00 0.03 0.00 64 1013.5
20260510130643 18 66 0.0 0.0 0.00 0.03 0.00 59 1013.5
20260510130143 18 36 0.0 0.0 0.00 0.03 0.00 59 1013.5
20260510125642 18 283 0.0 0.0 0.00 0.03 0.00 59 1013.6
20260510125138 18 15 0.0 0.0 0.00 0.03 0.00 59 1013.7
20260510124637 18 36 0.0 0.0 0.00 0.03 0.00 61 1013.6
20260510124135 18 15 0.0 0.0 0.00 0.03 0.00 59 1013.7
20260510123644 18 69 0.0 0.0 0.00 0.03 0.00 58 1013.7
20260510123133 18 327 0.0 0.0 0.00 0.03 0.00 59 1013.8
20260510122635 18 334 0.0 0.0 0.00 0.03 0.00 59 1013.9
20260510122130 18 37 0.0 0.0 0.00 0.03 0.00 57 1013.9
20260510121631 18 31 0.0 0.0 0.00 0.03 0.00 59 1014.0
20260510121449 18 23 0.0 0.0 0.00 0.03 0.00 57 1014.1
20260510120632 18 33 0.0 0.0 0.00 0.03 0.00 57 1014.1
20260510120136 18 23 0.0 0.0 0.00 0.03 0.00 59 1014.0
20260510115957 18 61 0.0 0.0 0.00 0.03 0.00 61 1014.0
20260510115134 18 56 0.0 0.0 0.00 0.03 0.00 60 1014.1
20260510114946 18 44 0.0 0.0 0.00 0.03 0.00 58 1014.1
20260510114131 18 15 0.0 0.0 0.00 0.03 0.00 57 1014.2
20260510113632 18 22 0.0 0.0 0.00 0.03 0.00 62 1014.2
20260510113457 18 44 0.0 0.0 0.00 0.03 0.00 61 1014.3
20260510112633 18 34 0.0 0.0 0.00 0.03 0.00 61 1014.2
20260510112132 18 85 0.0 0.0 0.00 0.03 0.00 56 1014.3
20260510112003 18 5 0.0 0.0 0.00 0.03 0.00 60 1014.4
20260510111142 18 328 0.0 0.0 0.00 0.03 0.00 60 1014.4
20260510110648 18 36 0.0 0.0 0.00 0.03 0.00 63 1014.4
20260510110134 18 23 0.0 0.0 0.00 0.03 0.00 61 1014.5
20260510105635 18 23 0.0 0.0 0.00 0.03 0.00 62 1014.5
20260510105131 18 5 0.0 0.0 0.00 0.03 0.00 62 1014.5
20260510104632 17 15 0.0 0.0 0.00 0.03 0.00 63 1014.5
20260510104132 17 349 0.0 0.0 0.00 0.03 0.00 63 1014.6
20260510103631 17 22 0.0 0.0 0.00 0.03 0.00 61 1014.5
20260510103130 17 15 0.0 0.0 0.00 0.03 0.00 63 1014.5
20260510102631 17 43 0.0 0.0 0.00 0.03 0.00 64 1014.6
20260510102132 16 15 0.0 0.0 0.00 0.03 0.00 66 1014.7
20260510101632 16 23 0.0 0.0 0.00 0.03 0.00 68 1014.8
20260510101130 16 5 0.0 0.0 0.00 0.03 0.00 70 1014.7
20260510100630 15 39 0.0 0.0 0.00 0.03 0.00 71 1014.6
20260510100130 15 302 0.0 0.0 0.00 0.03 0.00 72 1014.6
20260510095627 14 336 0.0 0.0 0.00 0.03 0.00 71 1014.7
20260510095124 14 45 0.0 0.0 0.00 0.03 0.00 71 1014.7
20260510094615 14 334 0.0 0.0 0.00 0.03 0.00 72 1014.8
20260510094112 13 356 0.0 0.0 0.00 0.03 0.00 72 1014.8
20260510093614 13 257 0.0 0.0 0.00 0.03 0.00 71 1014.8
20260510093110 14 51 0.0 0.0 0.00 0.03 0.00 72 1014.8
20260510092611 14 60 0.0 0.0 0.00 0.03 0.00 73 1014.7
20260510092110 14 61 0.0 0.0 0.00 0.03 0.00 73 1014.8
20260510091924 14 306 0.0 0.0 0.00 0.03 0.00 73 1014.8
20260510091107 13 15 0.0 0.0 0.00 0.03 0.00 75 1014.8
20260510090911 13 22 0.0 0.0 0.00 0.03 0.00 75 1014.7
20260510090106 13 356 0.0 0.0 0.00 0.03 0.00 76 1014.8
20260510085604 13 298 0.0 0.0 0.00 0.03 0.00 75 1014.9
20260510085105 13 320 0.0 0.0 0.00 0.03 0.00 76 1014.9
20260510084603 12 314 0.0 0.0 0.00 0.03 0.00 77 1015.0
20260510084422 12 20 0.0 0.0 0.00 0.03 0.00 77 1015.0
20260510083603 12 343 0.0 0.0 0.00 0.03 0.00 79 1014.9
20260510083100 12 34 0.0 0.0 0.00 0.03 0.00 79 1015.0
20260510082601 12 27 0.0 0.0 0.00 0.03 0.00 79 1015.0
20260510082100 12 28 0.0 0.0 0.00 0.03 0.00 79 1015.1
20260510081601 11 10 0.0 0.0 0.00 0.03 0.00 79 1015.1
20260510081100 11 21 0.0 0.0 0.00 0.03 0.00 79 1015.1
20260510080602 11 30 0.0 0.0 0.00 0.03 0.00 79 1015.0
20260510080414 11 5 0.0 0.0 0.00 0.03 0.00 78 1015.0
20260510075604 12 10 0.0 0.0 0.00 0.03 0.00 78 1015.0
20260510075105 12 340 0.0 0.0 0.00 0.03 0.00 76 1015.1
20260510074605 12 342 0.0 0.0 0.00 0.03 0.00 75 1015.1
20260510074232 13 1 0.0 0.0 0.00 0.03 0.00 73 1014.9
20260510074159 12 335 0.0 0.0 0.00 0.03 0.00 74 1015.0
20260510073809 13 342 0.0 0.0 0.00 0.03 0.00 72 1014.9
20260510073544 13 21 0.0 0.0 0.00 0.03 0.00 72 1015.0
20260510072101 13 340 0.0 0.0 0.00 0.03 0.00 75 1014.8
20260510071601 13 336 0.0 0.0 0.00 0.03 0.00 76 1014.9
20260510071102 13 15 0.0 0.0 0.00 0.03 0.00 76 1014.9
20260510070602 12 29 0.0 0.0 0.00 0.03 0.00 77 1014.9
20260510070100 12 5 0.0 0.0 0.00 0.03 0.00 78 1014.8
20260510065907 12 357 0.0 0.0 0.00 0.03 0.00 79 1014.6
20260510065101 11 320 0.0 0.0 0.00 0.03 0.00 79 1014.6
20260510064602 11 358 0.0 0.0 0.00 0.03 0.00 80 1014.5
20260510064425 11 20 0.0 0.0 0.00 0.03 0.00 82 1014.6
20260510063601 10 313 0.0 0.0 0.00 0.03 0.00 82 1014.5
20260510063100 10 347 0.0 0.0 0.00 0.03 0.00 84 1014.4
20260510062559 9 5 0.0 0.0 0.00 0.03 0.00 84 1014.3
20260510062054 9 10 0.0 0.0 0.00 0.03 0.00 84 1014.3
20260510061553 9 338 0.0 0.0 0.00 0.03 0.00 84 1014.3
20260510061051 8 342 0.0 0.0 0.00 0.03 0.00 85 1014.2
20260510060550 8 15 0.0 0.0 0.00 0.03 0.00 84 1014.2
20260510060050 8 333 0.0 0.0 0.00 0.03 0.00 84 1014.1
20260510055914 8 328 0.0 0.0 0.00 0.03 0.00 84 1014.0
20260510055053 8 296 0.0 0.0 0.00 0.03 0.00 84 1014.0
20260510054550 8 318 0.0 0.0 0.00 0.03 0.00 84 1014.0
20260510054049 8 19 0.0 0.0 0.00 0.03 0.00 84 1014.1
20260510053543 8 5 0.0 0.0 0.00 0.03 0.00 84 1014.1
20260510053042 8 10 0.0 0.0 0.00 0.03 0.00 83 1014.0
20260510052541 8 355 0.0 0.0 0.00 0.03 0.00 83 1014.2
20260510052038 8 353 0.0 0.0 0.00 0.03 0.00 83 1014.2
20260510051537 8 312 0.0 0.0 0.00 0.03 0.00 83 1014.3
20260510051037 8 348 0.0 0.0 0.00 0.03 0.00 83 1014.3
20260510050536 8 19 0.0 0.0 0.00 0.03 0.00 83 1014.2
20260510050033 8 19 0.0 0.0 0.00 0.03 0.00 82 1014.2
20260510045533 8 19 0.0 0.0 0.00 0.03 0.00 82 1014.1
20260510045526 9 355 0.0 0.0 0.00 0.03 0.00 81 1014.1
20260510045136 9 28 0.0 0.0 0.00 0.03 0.00 82 1014.2
20260510044848 9 29 0.0 0.0 0.00 0.03 0.00 82 1014.1
20260510044139 9 314 0.0 0.0 0.00 0.03 0.00 81 1014.1
20260510043030 9 354 0.0 0.0 0.00 0.03 0.00 81 1014.1
20260510042530 10 15 0.0 0.0 0.00 0.03 0.00 81 1014.1
20260510042032 10 334 0.0 0.0 0.00 0.03 0.00 81 1014.1
20260510041532 10 333 0.0 0.0 0.00 0.03 0.00 81 1014.1
20260510041032 10 333 0.0 0.0 0.00 0.03 0.00 81 1014.2
20260510040530 10 356 0.0 0.0 0.00 0.03 0.00 81 1014.2
20260510040350 10 0 0.0 0.0 0.00 0.03 0.00 81 1014.2
20260510035530 10 23 0.0 0.0 0.00 0.03 0.00 82 1014.3
20260510035030 10 23 0.0 0.0 0.00 0.03 0.00 82 1014.3
20260510034525 10 21 0.0 0.0 0.00 0.03 0.00 82 1014.4
20260510034340 11 19 0.0 0.0 0.00 0.03 0.00 82 1014.4
20260510033522 11 308 0.0 0.0 0.00 0.03 0.00 83 1014.4
20260510033022 11 308 0.0 0.0 0.00 0.03 0.00 83 1014.4
20260510032519 11 308 0.0 0.0 0.00 0.03 0.00 83 1014.4
20260510032018 11 303 0.0 0.0 0.00 0.03 0.00 83 1014.4
20260510031517 11 303 0.0 0.0 0.00 0.03 0.00 83 1014.3
20260510031336 11 311 0.0 0.0 0.00 0.03 0.00 83 1014.3
20260510030517 11 300 0.0 0.0 0.00 0.03 0.00 84 1014.3
20260510030014 11 49 0.0 0.0 0.00 0.03 0.00 84 1014.4
20260510025510 11 83 0.0 0.0 0.00 0.03 0.00 84 1014.4
20260510025011 11 83 0.0 0.0 0.00 0.03 0.00 84 1014.4
20260510024511 11 308 0.0 0.0 0.00 0.03 0.00 85 1014.4
20260510024009 11 308 0.0 0.0 0.00 0.03 0.00 86 1014.4
20260510023510 11 308 0.0 0.0 0.00 0.03 0.00 86 1014.4
20260510023004 10 308 0.0 0.0 0.00 0.03 0.00 87 1014.4
20260510022506 10 40 0.0 0.0 0.00 0.03 0.00 88 1014.4
20260510022006 10 40 0.0 0.0 0.00 0.03 0.00 88 1014.5
20260510021502 10 40 0.0 0.0 0.00 0.03 0.00 88 1014.5
20260510021002 10 40 0.0 0.0 0.00 0.03 0.00 88 1014.6
20260510020502 11 40 0.0 0.0 0.00 0.03 0.00 88 1014.6
20260510020315 11 40 0.0 0.0 0.00 0.03 0.00 89 1014.5
20260510015504 11 40 0.0 0.0 0.00 0.03 0.00 89 1014.5
20260510015003 11 40 0.0 0.0 0.00 0.03 0.00 88 1014.6
20260510014502 11 40 0.0 0.0 0.00 0.03 0.00 89 1014.6
20260510014002 11 40 0.0 0.0 0.00 0.03 0.00 89 1014.6
20260510013502 11 40 0.0 0.0 0.00 0.03 0.00 89 1014.5
20260510013002 11 40 0.0 0.0 0.00 0.03 0.00 89 1014.6
20260510012505 11 40 0.0 0.0 0.00 0.03 0.00 89 1014.7
20260510012002 11 40 0.0 0.0 0.00 0.03 0.00 89 1014.7
20260510011502 11 40 0.0 0.0 0.00 0.03 0.00 89 1014.8
20260510011002 11 40 0.0 0.0 0.00 0.03 0.00 90 1014.7
20260510010503 11 40 0.0 0.0 0.00 0.03 0.00 90 1014.8
20260510010000 11 40 0.0 0.0 0.00 0.03 0.00 90 1014.8
20260510005500 11 40 0.0 0.0 0.00 0.03 0.00 90 1014.8
20260510005000 11 40 0.0 0.0 0.00 0.03 0.00 90 1014.8
20260510004500 11 40 0.0 0.0 0.00 0.03 0.00 90 1014.8
20260510003957 11 40 0.0 0.0 0.00 0.03 0.00 90 1014.8
20260510003456 11 40 0.0 0.0 0.00 0.03 0.00 90 1014.8
20260510002956 11 40 0.0 0.0 0.00 0.03 0.00 90 1014.8
20260510002456 11 40 0.0 0.0 0.00 0.03 0.00 90 1014.8
20260510001956 11 40 0.0 0.0 0.00 0.03 0.00 91 1014.8
20260510001456 11 40 0.0 0.0 0.00 0.03 0.00 90 1015.0
20260510001324 11 40 0.0 0.0 0.00 0.03 0.00 91 1015.0
20260510000814 11 40 0.0 0.0 0.00 0.03 0.00 91 1015.0
20260509235952 11 40 0.0 0.0 0.00 0.03 0.00 91 1015.1
20260509235808 11 40 0.0 0.0 0.00 0.03 0.00 90 1015.1
20260509234949 11 40 0.0 0.0 0.00 0.03 0.00 90 1015.1
20260509234448 11 40 0.0 0.0 0.00 0.03 0.00 90 1015.1
20260509233946 11 40 0.0 0.0 0.00 0.03 0.00 90 1015.2
20260509233804 11 40 0.0 0.0 0.00 0.03 0.00 90 1015.2
20260509233258 11 40 0.0 0.0 0.00 0.03 0.00 90 1015.2
20260509232449 11 40 0.0 0.0 0.00 0.03 0.00 90 1015.1
20260509231948 11 40 0.0 0.0 0.00 0.03 0.00 90 1015.1
20260509231757 11 40 0.0 0.0 0.00 0.03 0.00 90 1015.1
20260509230947 11 40 0.0 0.0 0.00 0.03 0.00 90 1015.2
20260509230447 11 40 0.0 0.0 0.00 0.03 0.00 90 1015.3
20260509225944 11 40 0.0 0.0 0.00 0.03 0.03 90 1015.3
20260509225445 11 40 0.0 0.0 0.00 0.03 0.03 89 1015.3
20260509224946 11 40 0.0 0.0 0.00 0.03 0.03 89 1015.2
20260509224443 11 40 0.0 0.0 0.00 0.03 0.03 89 1015.2
20260509223942 11 40 0.0 0.0 0.00 0.03 0.03 89 1015.2
20260509223752 11 40 0.0 0.0 0.00 0.03 0.03 89 1015.2
20260509222944 11 40 0.0 0.0 0.00 0.03 0.03 89 1015.3
20260509222443 11 40 0.0 0.0 0.00 0.03 0.03 89 1015.2
20260509221944 11 40 0.0 0.0 0.00 0.03 0.03 88 1015.3
20260509221445 11 40 0.0 0.0 0.00 0.03 0.03 88 1015.3
20260509221130 11 40 0.0 0.0 0.00 0.03 0.03 88 1015.4
20260509221047 11 40 0.0 0.0 0.00 0.03 0.03 88 1015.3
20260509215942 11 40 0.0 0.0 0.00 0.03 0.03 88 1015.4
20260509215445 11 40 0.0 0.0 0.00 0.03 0.03 88 1015.3
20260509214938 11 42 0.0 0.0 0.00 0.03 0.03 87 1015.3
20260509214440 12 42 0.0 0.0 0.00 0.03 0.03 87 1015.3
20260509213941 12 42 0.0 0.0 0.00 0.03 0.03 87 1015.2
20260509213440 12 42 0.0 0.0 0.00 0.03 0.03 86 1015.3
20260509212938 12 42 0.0 0.0 0.00 0.03 0.03 86 1015.2
20260509212437 12 42 0.0 0.0 0.00 0.03 0.03 86 1015.2
20260509211935 12 42 0.0 0.0 0.00 0.03 0.03 86 1015.2
20260509211433 12 15 0.0 0.0 0.00 0.03 0.03 86 1015.3
20260509210930 12 15 0.0 0.0 0.00 0.03 0.03 86 1015.2
20260509210431 12 156 0.0 0.0 0.00 0.03 0.03 85 1015.2
20260509205932 12 156 0.0 0.0 0.00 0.03 0.03 85 1015.2
20260509205429 12 158 0.0 0.0 0.00 0.03 0.03 84 1015.1
20260509204932 13 158 0.0 0.0 0.00 0.03 0.03 84 1015.1
20260509204439 13 158 0.0 0.0 0.00 0.03 0.03 84 1015.0
20260509204259 13 152 0.0 0.0 0.00 0.03 0.03 84 1015.0
20260509203423 13 152 0.0 0.0 0.00 0.03 0.03 83 1015.0
20260509203246 13 152 0.0 0.0 0.00 0.03 0.03 83 1014.9
20260509202410 13 152 0.0 0.0 0.00 0.03 0.03 83 1014.9
20260509201911 13 152 0.0 0.0 0.00 0.03 0.03 83 1014.9
20260509201412 13 152 0.0 0.0 0.00 0.03 0.03 83 1014.8
20260509200910 13 40 0.0 0.0 0.00 0.03 0.03 83 1014.7
20260509200408 13 39 0.0 0.0 0.00 0.03 0.03 83 1014.7
20260509195913 13 39 0.0 0.0 0.00 0.03 0.03 83 1014.7
20260509195414 14 39 0.0 0.0 0.00 0.03 0.03 83 1014.6
20260509194921 14 39 0.0 0.0 0.00 0.03 0.03 83 1014.6
20260509194408 14 40 0.0 0.0 0.00 0.03 0.03 83 1014.5
20260509194218 14 41 0.0 0.0 0.00 0.03 0.03 83 1014.5
20260509193404 14 356 0.0 0.0 0.00 0.03 0.03 84 1014.5
20260509192902 14 356 0.0 0.0 0.00 0.03 0.03 84 1014.4
20260509192406 14 356 0.0 0.0 0.00 0.03 0.03 84 1014.4
20260509191903 14 356 0.0 0.0 0.00 0.03 0.03 84 1014.5
20260509191707 15 353 0.0 0.0 0.00 0.03 0.03 84 1014.6
20260509190902 15 36 0.0 0.0 0.00 0.03 0.03 84 1014.6